Back to catalog

ATLAS 5 CENTAUR DEB

LostHEO
NORAD 52045·DEBRIS·🇺🇸 United States

Launched Oct 17, 2018 from Cape Canaveral Space Force Station

Loading…

Next Passes (next 24 hours)

TLE

StaleSource: Space-Track

Epoch: May 14, 2026, 06:32 UTC

1 52045U 18079GP  26134.27264550 -.00000045  00000-0  00000-0 0  9998
2 52045  13.2531  62.0052 4565465 253.0346  53.4037  1.72870191 30108

Track ATLAS 5 CENTAUR DEB in real time with AllMySat

Download on the App Store